Weather History for Springfield, VT

Change the Weather History Date:

Wednesday, April 10, 2013

  Actual Average Record
Temperature  
Mean Temperature 49 °F 42 °F  
Max Temperature 56 °F 53 °F 66 °F (2005)
Min Temperature 42 °F 30 °F 18 °F (1997)
Degree Days  
Heating Degree Days 16 23  
Month to date heating degree days 250 253  
Since 1 July heating degree days 6132 6733  
Cooling Degree Days 0 0  
Month to date cooling degree days 0 0  
Year to date cooling degree days 0 0  
Moisture  
Dew Point 43 °F    
Average Humidity 81    
Maximum Humidity 100    
Minimum Humidity 61    
Precipitation  
Precipitation 0.69 in 0.14 in 0.69 in (2013)
Month to date precipitation 0.99 1.45  
Year to date precipitation 6.14 10.36  
Sea Level Pressure  
Sea Level Pressure 29.94 in    
Wind  
Wind Speed 3 mph (NE)    
Max Wind Speed 9 mph    
Max Gust Speed 12 mph    
Visibility 6 miles    
Events Rain    
T = Trace of Precipitation, MM = Missing Value Source: NWS Daily Summary

Daily Weather History Graph

Daily Weather History Graph

Search for Another Location

Airport:

Trip Planner

Search our weather history database for the weather conditions in past years. The results will help you decide how hot, cold, wet, or windy it might be!

Date:

Astronomy

Apr. 10, 2013 Rise Set
Actual Time 6:15 AM EDT 7:27 PM EDT
Civil Twilight 5:46 AM EDT 7:56 PM EDT
Nautical Twilight 5:11 AM EDT 8:32 PM EDT
Astronomical Twilight 4:34 AM EDT 9:09 PM EDT
Moon 6:09 AM EDT (4/10) 8:02 PM EDT (4/10)
Length of Visible Light 14h 10m
Length of Day
13h 11m
New Moon, 0% of the Moon is Illuminated
Apr 10
New Moon
Apr 18
First Quarter
Apr 25
Full
May 2
Last Quarter
May 9
New

Hourly Weather History & Observations

Time (EDT) Temp. Windchill Dew Point Humidity Pressure Visibility Wind Dir Wind Speed Gust Speed Precip Events Conditions
12:54 AM 45.0 °F - 39.0 °F 80% 29.98 in 9.0 mi Calm Calm - 0.01 in Rain Light Rain
1:54 AM 43.0 °F - 41.0 °F 93% 30.01 in 3.0 mi Calm Calm - 0.15 in Rain Rain
2:01 AM 42.8 °F - 41.0 °F 93% 30.00 in 2.5 mi Calm Calm - 0.03 in Rain Rain
2:09 AM 42.8 °F - 41.0 °F 93% 30.00 in 4.0 mi Calm Calm - 0.06 in Rain Rain
2:54 AM 43.0 °F 40.3 °F 41.0 °F 93% 29.96 in 5.0 mi West 4.6 mph - 0.15 in Rain Light Rain
3:01 AM 42.8 °F 41.1 °F 42.8 °F 100% 29.95 in 7.0 mi NNW 3.5 mph - 0.01 in Rain Light Rain
3:51 AM 42.8 °F 41.1 °F 41.0 °F 93% 29.94 in 5.0 mi East 3.5 mph - 0.04 in Rain Light Rain
3:54 AM 43.0 °F - 41.0 °F 93% 29.95 in 4.0 mi Calm Calm - 0.04 in Rain Light Rain
4:02 AM 42.8 °F - 42.8 °F 100% 29.94 in 4.0 mi Calm Calm - 0.01 in Rain Light Rain
4:16 AM 42.8 °F - 41.0 °F 93% 29.93 in 4.0 mi Calm Calm - 0.02 in Rain Light Rain
4:36 AM 42.8 °F - 41.0 °F 93% 29.93 in 4.0 mi Calm Calm - 0.03 in Rain Light Rain
4:54 AM 43.0 °F - 41.0 °F 93% 29.94 in 5.0 mi Calm Calm - 0.03 in Rain Light Rain
5:17 AM 42.8 °F - 41.0 °F 93% 29.93 in 5.0 mi Calm Calm - 0.01 in Rain Light Rain
5:54 AM 43.0 °F - 42.1 °F 97% 29.94 in 5.0 mi Calm Calm - 0.01 in   Overcast
6:54 AM 43.0 °F - 42.1 °F 97% 29.96 in 5.0 mi Calm Calm - N/A   Overcast
7:10 AM 42.8 °F - 42.8 °F 100% 29.96 in 3.0 mi Calm Calm - N/A   Overcast
7:28 AM 42.8 °F - 42.8 °F 100% 29.95 in 2.0 mi Calm Calm - 0.01 in   Overcast
7:43 AM 44.6 °F - 42.8 °F 93% 29.96 in 3.0 mi Calm Calm - 0.01 in   Overcast
7:54 AM 44.1 °F - 42.1 °F 93% 29.97 in 5.0 mi Calm Calm - 0.01 in   Overcast
8:14 AM 44.6 °F - 42.8 °F 93% 29.97 in 9.0 mi Calm Calm - N/A   Overcast
8:54 AM 45.0 °F - 42.1 °F 90% 29.99 in 3.0 mi Calm Calm - 0.01 in Rain Light Rain
9:36 AM 46.4 °F - 44.6 °F 93% 29.97 in 10.0 mi Calm Calm - 0.00 in   Overcast
9:54 AM 48.0 °F - 44.1 °F 86% 29.98 in 10.0 mi Calm Calm - 0.00 in   Overcast
10:22 AM 50.0 °F - 44.6 °F 82% 29.97 in 10.0 mi ENE 6.9 mph - N/A   Overcast
10:32 AM 50.0 °F - 44.6 °F 82% 29.98 in 10.0 mi ENE 6.9 mph - N/A   Overcast
10:54 AM 51.1 °F - 44.1 °F 77% 29.98 in 10.0 mi Variable 5.8 mph - N/A   Overcast
11:54 AM 51.1 °F - 44.1 °F 77% 29.98 in 10.0 mi ENE 9.2 mph - N/A   Overcast
1:12 PM 51.8 °F - 44.6 °F 76% 29.97 in 10.0 mi Calm Calm - N/A   Overcast
1:20 PM 51.8 °F - 42.8 °F 71% 29.97 in 10.0 mi East 5.8 mph - N/A   Overcast
1:54 PM 52.0 °F - 43.0 °F 71% 29.99 in 10.0 mi ENE 4.6 mph - N/A   Overcast
2:54 PM 54.0 °F - 45.0 °F 72% 29.92 in 10.0 mi Variable 6.9 mph - 0.00 in Rain Light Rain
3:06 PM 55.4 °F - 44.6 °F 67% 29.88 in 10.0 mi East 5.8 mph - 0.00 in   Scattered Clouds
3:49 PM 55.4 °F - 42.8 °F 63% 29.91 in 10.0 mi NNW 4.6 mph - 0.00 in   Overcast
3:54 PM 55.0 °F - 42.1 °F 62% 29.92 in 10.0 mi North 4.6 mph - 0.00 in   Overcast
4:54 PM 55.0 °F - 42.1 °F 62% 29.91 in 10.0 mi NE 5.8 mph - N/A   Overcast
5:54 PM 54.0 °F - 41.0 °F 62% 29.91 in 10.0 mi NNE 4.6 mph - N/A   Overcast
6:54 PM 51.1 °F - 43.0 °F 74% 29.92 in 5.0 mi Calm Calm - 0.01 in Rain Light Rain
7:54 PM 48.0 °F - 44.1 °F 86% 29.90 in 10.0 mi Variable 3.5 mph - 0.08 in Rain Light Rain
8:27 PM 46.4 °F - 44.6 °F 93% 29.92 in 4.0 mi Calm Calm - 0.04 in Rain Light Rain
8:54 PM 46.9 °F - 45.0 °F 93% 29.92 in 10.0 mi ENE 3.5 mph - 0.06 in Rain Light Rain
9:11 PM 46.4 °F - 44.6 °F 93% 29.91 in 7.0 mi Calm Calm - 0.00 in Rain Light Rain
9:18 PM 46.4 °F - 44.6 °F 93% 29.90 in 9.0 mi Calm Calm - 0.01 in Rain Light Rain
9:42 PM 46.4 °F - 44.6 °F 93% 29.92 in 9.0 mi Calm Calm - 0.01 in Rain Light Rain
9:54 PM 46.0 °F 42.5 °F 42.1 °F 86% 29.93 in 3.0 mi NNE 6.9 mph - 0.01 in Rain Light Rain
9:59 PM 46.4 °F 43.5 °F 42.8 °F 87% 29.92 in 2.5 mi North 5.8 mph - 0.01 in Rain Light Rain
10:13 PM 44.6 °F 42.2 °F 42.8 °F 93% 29.91 in 3.0 mi NNE 4.6 mph - 0.02 in Rain Light Rain
10:27 PM 44.6 °F - 42.8 °F 93% 29.91 in 3.0 mi Calm Calm - 0.02 in Rain Light Rain
10:41 PM 44.6 °F - 42.8 °F 93% 29.92 in 4.0 mi Calm Calm - 0.03 in Rain Light Rain
10:54 PM 45.0 °F 43.5 °F 42.1 °F 90% 29.93 in 3.0 mi North 3.5 mph - 0.05 in Rain Rain
11:06 PM 44.6 °F - 42.8 °F 93% 29.93 in 3.0 mi Calm Calm - 0.02 in Rain Rain
11:54 PM 44.1 °F - 41.0 °F 89% 29.93 in 4.0 mi Calm Calm - 0.07 in Rain Light Rain